CZ-4B DEB, 44593

Orbit data source: Space-Track

CZ-4B DEB, 44593 is space debris in SSO originally from a launch on Sat, 25 Oct 2008 UTC launched from the Taiyaun Space Center, China (TSC). Debris objects in space refer to the collection of defunct objects orbiting the Earth. Examples of debris include non-operational satellites, rocket bodies, and fragments generated from explosions, collisions, or faulty payload assembly.

Loading next visibility...
Identifier
44593, 2008-053M
Orbit
SSO
Country
Flag of CNCN / PRC
Related business
Manufacturer
DFH
Mission
Spacecraft
Bus & Motor
Unknown
Mass
Unknown
Launch date (UTC)
2008-10-25 (18 years ago)
Launch vehicle
Unknown
Launch site
Taiyaun Space Center, China (TSC)
Object type
Payload
Rocket body
Debris
Shape & HBR
Unknown shape, 0.1 m
Radar Cross Section
Small (<0.1 m²)

Expand to show TLE details & history
Last TLE update: 3 days ago

TLE from 3 days ago
0 CZ-4B DEB
1 44593U 08053M   26170.30755546  .00001632  00000-0  10814-3 0  9991
2 44593  97.8162 198.6091 0017264 258.2353 101.6939 15.08669445687976
Epoch: 2026-06-19T07:22Z
TLE epoch observation values (Epoch: 2026-06-19T07:22:52.791Z)
Latitude
0.00005°
Longitude
-179.64927°
Altitude
545.769 km
Speed
7.588 km/s
True Right ascension
13h 14m 26s
True Declination
0° 00' 00"
Sunlit
Object was in daylight at epoch
Visualization orbit readout
Latitude
Unknown
Longitude
Unknown
Altitude
Unknown
Speed
Unknown
Apparent Right ascension
Unknown
Apparent Declination
Unknown
Sunlit
N/A
Visualization observer readout
Local Sidereal Time
21:23:20
Azimuth
Unknown
Elevation
Unknown
Doppler factor
Unknown
Orbital elements
Apogee altitude
549.202 km
Perigee altitude
525.325 km
Semi-major axis
6,915.401 km
Eccentricity
0.00173
Inclination
97.8162°
RAAN
198.6091°
Arg. of periapsis
258.2353°
True anomaly
101.88754°
Mean anomaly
101.6939°
Eccentric anomaly
101.79073°
Mean motion
3.77413 °/min
Orbital period
95.39 mins
BSTAR
0.00010814
Loading maneuver chart data...
Computing Atmospheric mass density...
Loading historical data...
Loading historical data...
Loading historical data...
Loading historical data...
Loading historical data...
Loading historical data...
Loading historical data...

Documentation

Showing up to 5 results
|